Location: G�nzburg
(48.4565°N, 10.3217°E)
Time: 12:20:24
(UTC+02:00)

OTV 5 (USA 277) - Visible Passes

Search period start: 25 April 2018 00:00
Search period end: 05 May 2018 00:00
Orbit: 308 x 325 km, 54.5° (Epoch: 23 April)

Date Brightness Start Highest point End Pass type
(mag) Time Alt. Az. Time Alt. Az. Time Alt. Az.
25 Apr ? 21:50:54 10° NW 21:53:07 22° N 21:55:19 10° NE visible
25 Apr ? 23:25:25 10° NW 23:26:41 21° NNW 23:26:41 21° NNW visible
26 Apr ? 22:05:34 10° NW 22:07:50 23° N 22:09:40 13° ENE visible
26 Apr ? 23:39:50 10° NW 23:40:32 16° NW 23:40:32 16° NW visible
27 Apr ? 22:20:05 10° NW 22:22:31 28° NNE 22:23:30 22° NE visible
27 Apr ? 23:54:19 10° WNW 23:54:22 10° WNW 23:54:22 10° WNW visible
28 Apr ? 21:00:09 10° NW 21:02:22 22° N 21:04:35 10° ENE visible
28 Apr ? 22:34:31 10° NW 22:37:09 43° NNE 22:37:20 43° NE visible
29 Apr ? 21:14:44 10° NW 21:17:05 25° N 21:19:24 10° ENE visible
29 Apr ? 22:48:57 10° WNW 22:51:10 55° WNW 22:51:10 55° WNW visible
30 Apr ? 21:29:12 10° NW 21:31:45 34° NNE 21:34:09 11° E visible
30 Apr ? 23:03:31 10° WNW 23:05:01 25° W 23:05:01 25° W visible
01 May ? 21:43:37 10° NW 21:46:20 60° NNE 21:48:02 19° ESE visible
01 May ? 23:18:29 10° W 23:18:54 12° W 23:18:54 12° W visible
02 May ? 21:58:06 10° WNW 22:00:48 62° SW 22:01:56 29° SE visible
03 May ? 22:12:48 10° W 22:15:10 26° SW 22:15:52 23° SSW visible
04 May ? 22:28:18 10° WSW 22:29:23 12° SW 22:29:51 11° SW visible
